Location: Allinges
(46.3366°N, 6.4636°E)
Time: 12:53:06
(UTC+00:00)

Daily predictions for brighter satellites

Satellite Brightness Start Highest point End
(mag) Time Altitude Azimuth Time Altitude Azimuth Time Altitude Azimuth
AQUARIUS 4.2 16:44:07 10° SSE 16:48:33 63° ENE 16:53:00 10° N
PAYLOAD B 4.3 16:43:09 10° SSE 16:48:39 88° WSW 16:54:13 10° NNW
Cosmos 2297 Rocket 4.2 16:44:55 10° W 16:49:12 21° NW 16:53:29 10° N
Cosmos 1603 3.7 16:44:56 10° NNW 16:50:41 83° ENE 16:56:25 10° SSE
Meteor 2-10 Rocket 4.4 16:46:36 10° N 16:51:22 28° ENE 16:55:57 10° SE
CZ-2D R/B 4.4 16:53:23 10° ESE 16:56:28 23° ENE 16:59:33 10° NNE
Cosmos 1606 Rocket 3.8 16:52:36 10° N 16:56:50 45° ENE 17:01:04 10° SSE
H-2A R/B 2.2 16:54:16 10° NNE 16:58:43 64° ESE 17:03:02 10° S
Cosmos 1892 Rocket 4.5 16:55:28 10° SSE 16:59:10 28° E 17:02:51 10° NNE
YAOGAN 1 4.1 16:56:37 10° E 16:59:18 16° ENE 17:01:59 10° NNE
USA 234 4.1 16:53:50 10° ENE 16:59:38 35° N 17:05:26 10° WNW
ATLAS 5 CENTAUR R/B 1.5 16:56:40 10° SW 17:00:39 86° NW 17:05:11 10° NE
FengYun 1-2 T 4.2 16:55:42 10° SSE 17:01:13 71° ENE 17:06:49 10° N
CZ-4C R/B 3.2 16:59:26 10° N 17:02:34 65° WNW 17:05:42 10° SSW
Tsikada Rocket 4.4 16:56:22 10° SSW 17:02:40 71° W 17:08:57 10° N
NOAA 12 4.2 16:57:55 10° SSE 17:03:09 83° WSW 17:08:26 10° NNW
SL-14 R/B 3.2 17:00:40 10° S 17:04:31 80° E 17:08:26 10° NNE
RESURS DK-1 3.1 17:02:04 10° SW 17:06:06 52° WNW 17:10:10 10° NNE
MOS 1 Rocket 4.2 17:04:28 10° NE 17:07:58 24° E 17:11:26 10° SSE
ATLAS 3B R/B 3.5 17:01:39 10° NW 17:08:28 60° WSW 17:15:34 10° SSE
Cosmos 2228 2.9 17:04:35 10° N 17:08:51 67° E 17:13:06 10° SSE
BREEZE-M DEB (TANK) 4.2 17:07:31 10° W 17:10:01 24° SSW 17:12:42 10° SSE
Cosmos 2142 Rocket 4.4 17:04:46 10° N 17:10:57 71° E 17:17:03 10° SSE
Meteor 2-5 Rocket 3.7 17:07:49 10° S 17:13:24 87° E 17:18:58 10° NNE
SKYMED 2 4.2 17:10:00 10° NNE 17:14:01 36° E 17:18:00 10° SSE
CZ-4C R/B 3.3 17:09:28 10° WSW 17:14:17 37° NW 17:20:02 10° NNE
Cosmos 1538 Rocket 4.2 17:10:16 10° NNW 17:15:15 46° ENE 17:20:12 10° SE
Aureole 3 4.5 17:13:12 10° NNE 17:15:27 16° ENE 17:17:31 10° ESE
SJ 16-02 2.7 17:13:12 10° SE 17:16:22 20° E 17:18:57 13° ENE
CZ-3B R/B 2.6 17:14:35 10° NW 17:16:40 26° NNE 17:20:09 12° E
Cosmos 1777 Rocket 4.2 17:14:21 10° S 17:19:28 55° ESE 17:24:38 10° NNE
CORIOLIS 4.5 17:14:31 10° S 17:19:55 72° WSW 17:25:19 10° NNW
Cosmos 2263 Rocket 2.6 17:15:44 10° SW 17:21:23 67° WNW 17:27:03 10° NNE
Cosmos 1455 3.2 17:23:04 10° NNE 17:26:15 24° ENE 17:29:25 10° SE
Cosmos 2058 Rocket 3.3 17:23:55 10° N 17:28:17 48° ENE 17:32:39 10° SSE
Cosmos 1300 3.4 17:26:47 10° NNW 17:30:33 58° W 17:34:16 10° S
X-37B 2.5 17:29:19 10° SSW 17:31:44 20° SSE 17:33:14 15° ESE
ARGOS 3.9 17:32:59 10° ESE 17:37:32 29° ENE 17:42:08 10° N
Okean 1-7 Rocket 3.8 17:36:13 10° SSE 17:40:36 50° E 17:45:02 10° NNE
CREW DRAGON DEMO-1 DEB 3.5 17:38:23 10° NW 17:41:05 34° NNE 17:41:52 28° NE
Lacrosse 5 2.0 17:36:19 10° NW 17:41:17 54° NNE 17:45:00 17° ESE
Cosmos 1943 4.5 17:37:54 10° NW 17:43:16 44° WSW 17:48:33 10° S
Cosmos 1726 Rocket 3.8 17:39:29 10° NNW 17:43:50 74° W 17:48:12 10° S
ISS -2.7 17:40:52 10° SSW 17:43:54 32° SE 17:45:00 25° ESE
Cosmos 1939 Rocket 3.3 17:40:26 10° S 17:44:32 69° WSW 17:48:38 10° NNW
ERS-2 2.4 17:42:02 16° NNE 17:44:43 43° E 17:48:11 10° S
CZ-2C R/B 3.9 17:45:50 21° E 17:46:19 21° E 17:50:26 10° SE
EXPRESS MD2 4.2 17:38:19 10° WNW 17:47:02 83° SSW 17:50:21 17° ESE
PSLV R/B 4.4 17:43:31 13° NNE 17:47:04 40° E 17:51:03 10° S
Meteor 1-24 Rocket 4.1 17:42:17 10° SSW 17:47:35 62° WNW 17:52:51 10° N
COSMOS 2455 2.8 17:42:43 10° SSW 17:48:43 76° ESE 17:54:02 14° NE
Cosmos 1626 Rocket 4.1 17:47:55 10° SSE 17:51:52 34° E 17:54:01 22° NE
Cosmos 1844 4.1 17:48:30 10° S 17:53:46 43° ESE 17:57:10 21° NE
Cosmos 1833 Rocket 4.1 17:50:48 10° N 17:54:39 18° NE 17:54:41 18° NE
IRS-1C Rocket 4.0 17:50:05 10° SSE 17:55:20 84° ENE 18:00:37 10° NNW
Cosmos 2082 Rocket 4.1 17:53:41 10° N 17:55:56 13° NNE 17:55:56 13° NNE
CZ-4 R/B 1.3 17:52:45 10° SSE 17:56:50 64° ENE 18:00:51 10° N
Feng Yun 1-1 Rocket 4.5 17:52:39 10° S 17:58:03 72° WSW 18:03:36 10° NNW
COSMO-SKYMED 1 2.8 17:57:52 10° N 18:02:13 73° WNW 18:06:33 10° SSW
USA 267 4.2 18:04:12 24° E 18:06:13 28° SE 18:11:41 10° S
CZ-4B R/B 2.9 18:09:09 10° N 18:12:20 37° WNW 18:15:24 10° SW
Okean-O 2.5 18:08:31 10° SSE 18:12:57 85° ENE 18:17:25 10° NNW
CZ-2C R/B 3.5 18:09:15 10° S 18:14:28 66° W 18:20:02 10° NNW
Cosmos 1844 Rocket 2.6 18:10:04 10° SSW 18:15:42 77° ESE 18:19:24 23° NNE
Okean O Rocket 4.4 18:12:51 10° SW 18:16:12 21° W 18:19:32 10° NW
H-2A R/B 1.8 18:11:56 10° SSE 18:16:53 81° ENE 18:22:01 10° NNW
Cosmos 923 Rocket 3.9 18:11:40 10° NNW 18:17:01 69° ENE 18:22:18 10° SSE
OE (NEXTSAT) 4.2 18:14:11 10° WSW 18:17:37 77° S 18:17:46 75° SE
Meteor 1-21 Rocket 4.0 18:12:52 10° S 18:18:22 72° E 18:23:54 10° NNE
Aureole 2 Rocket 2.5 18:16:07 10° SSW 18:19:05 58° WNW 18:19:28 53° NNW
Cosmos 1689 Rocket 2.9 18:20:01 41° SSW 18:20:01 41° SSW 18:21:59 10° SSW
ATLAS 2AS CENTAUR R/B 4.3 18:12:57 10° W 18:19:45 30° NNW 18:25:30 13° NNE
Cosmos 158 Rocket 3.9 18:17:04 10° NNW 18:22:26 83° ENE 18:27:50 10° SSE
Meteor 2-8 Rocket 4.4 18:16:54 10° N 18:22:53 56° ENE 18:28:52 10° SSE
Cosmos 1898 Rocket 4.0 18:19:13 10° S 18:23:42 39° ESE 18:23:42 39° ESE
Cosmos 1680 Rocket 3.4 18:19:12 10° NNW 18:24:25 61° ENE 18:26:36 34° SE
Cosmos 1627 Rocket 4.4 18:24:15 10° S 18:30:17 59° E 18:36:25 10° NNE
Cosmos 2098 Rocket 4.4 18:24:53 10° SSE 18:31:38 51° E 18:38:46 10° NNE
Cosmos 1602 Rocket 3.4 18:27:34 10° S 18:31:35 65° ESE 18:31:35 65° ESE
SAR-Lupe-4 4.0 18:31:28 40° NNW 18:32:30 61° WNW 18:36:01 10° SSW
Cosmos 1818 3.5 18:27:16 10° SW 18:32:43 85° NW 18:34:52 38° NNE
YAOGAN 1 3.1 18:30:41 10° S 18:34:56 59° W 18:39:14 10° NNW
Cosmos 1428 Rocket 4.4 18:29:08 10° S 18:35:17 60° E 18:41:29 10° NNE
CSL-04 Rocket 3.5 18:33:21 10° SSE 18:38:44 85° ENE 18:44:14 10° NNW
Helios 1A Rocket 3.3 18:35:44 10° S 18:39:50 64° WSW 18:43:59 10° NNW
USA 234 3.6 18:40:20 41° NE 18:41:48 47° NNE 18:48:01 10° NW
Cosmos 1092 Rocket 3.9 18:39:11 10° S 18:45:23 89° W 18:51:36 10° N
ATLAS 5 CENTAUR R/B 3.7 18:42:58 10° WNW 18:46:03 19° NNW 18:47:38 16° N
Iridium 4 Rocket 3.5 18:41:06 10° N 18:46:52 88° E 18:52:09 10° S
Cosmos 1812 Rocket 4.0 18:45:30 10° N 18:48:54 52° NNW 18:48:54 52° NNW
Cosmos 2344 4.2 18:44:56 10° NW 18:54:03 67° NE 18:59:35 36° ESE
SJ 16-02 2.3 18:50:24 10° SW 18:54:37 44° WNW 18:55:59 33° NNW
Cosmos 1455 4.4 18:58:36 10° NNW 19:01:47 25° W 19:04:57 10° SW
Cosmos 2112 Rocket 4.0 18:56:37 10° NNW 19:01:53 78° WSW 19:02:18 72° SSW
CZ-4C R/B 4.3 19:00:47 10° NW 19:04:46 18° N 19:06:30 16° N
X-37B 3.6 19:04:50 10° WSW 19:05:31 15° WSW 19:05:31 15° WSW
COSMOS 2406 4.0 19:11:00 10° NNW 19:14:49 41° N 19:14:49 41° N
ARGOS 4.2 19:12:32 10° S 19:17:36 44° W 19:22:45 10° NNW
ISS -0.6 19:17:17 10° W 19:17:58 15° W 19:17:58 15° W
Cosmos 44 4.4 19:15:49 10° SW 19:18:46 39° SW 19:18:46 39° SW
Lacrosse 5 3.1 19:19:32 10° WNW 19:24:08 36° SW 19:24:15 35° SW
CZ-2C R/B 3.1 19:27:19 62° W 19:27:19 62° W 19:32:31 10° SSW
NOSS 3-1 (C) 4.1 19:25:37 10° NW 19:33:09 77° SW 19:34:40 62° S
Cosmos 1553 Rocket 4.3 19:30:50 10° NNW 19:36:14 61° NW 19:36:14 61° NW
Cosmos 1833 Rocket 4.1 19:33:47 10° NNW 19:36:25 29° NNW 19:36:25 29° NNW
Cosmos 2082 Rocket 4.2 19:36:07 10° NNW 19:37:48 19° NNW 19:37:48 19° NNW
USA 267 3.8 19:51:34 52° SW 19:51:34 52° SW 19:56:20 10° SW
USA 229 DEB 4.0 19:42:47 10° NW 19:49:18 71° WNW 19:49:18 71° WNW
USA 229 4.0 19:42:53 10° NW 19:49:21 70° WNW 19:49:21 70° WNW
NOSS 3-1 (A) 4.3 19:58:11 10° NW 20:04:26 64° WNW 20:04:26 64° WNW
